Hourly Weather Chahor

Today, 25 June, Friday

Time Temperature Precipitation Wind Pressure Humidity
00:00 +25°C° 0 mm 2 mps 743 mmHg 86%
01:00 +25°C° 0 mm 1 mps 742 mmHg 87%
02:00 +22°C° 0 mm 1 mps 743 mmHg 91%
03:00 +22°C° 0 mm 1 mps 742 mmHg 92%
04:00 +20°C° 0 mm 0 mps 742 mmHg 91%
05:00 +20°C° 0 mm 0 mps 742 mmHg 91%
06:00 +20°C° 0 mm 0 mps 742 mmHg 90%
07:00 +21°C° 0 mm 0 mps 742 mmHg 92%
08:00 +25°C° 0 mm 1 mps 742 mmHg 88%
09:00 +26°C° 0 mm 1 mps 742 mmHg 89%
10:00 +28°C° 0 mm 2 mps 743 mmHg 84%
11:00 +30°C° 0 mm 3 mps 742 mmHg 82%
12:00 +32°C° 0 mm 4 mps 742 mmHg 78%
13:00 +33°C° 0 mm 4 mps 742 mmHg 74%
14:00 +33°C° 0 mm 5 mps 742 mmHg 72%
15:00 +33°C° 0 mm 5 mps 741 mmHg 67%
16:00 +33°C° 0 mm 4 mps 741 mmHg 69%
17:00 +31°C° 0 mm 2 mps 741 mmHg 71%
18:00 +31°C° 0 mm 3 mps 742 mmHg 69%
19:00 +26°C° 0 mm 3 mps 742 mmHg 73%
20:00 +25°C° 0 mm 2 mps 741 mmHg 81%
21:00 +24°C° 0 mm 1 mps 740 mmHg 81%
22:00 +24°C° 0 mm 1 mps 741 mmHg 83%
23:00 +24°C° 0 mm 1 mps 741 mmHg 82%

Tomorrow, 26 June, Saturday

Time Temperature Precipitation Wind Pressure Humidity
00:00 +24°C° 0 mm 1 mps 740 mmHg 81%
01:00 +21°C° 0 mm 0 mps 740 mmHg 82%
02:00 +23°C° 0 mm 1 mps 740 mmHg 83%
03:00 +21°C° 0 mm 0 mps 740 mmHg 85%
04:00 +20°C° 0 mm 0 mps 740 mmHg 88%
05:00 +19°C° 0 mm 0 mps 740 mmHg 90%
06:00 +20°C° 0 mm 0 mps 740 mmHg 92%
07:00 +23°C° 0 mm 2 mps 740 mmHg 90%
08:00 +24°C° 0 mm 2 mps 740 mmHg 88%
09:00 +24°C° 0 mm 3 mps 740 mmHg 87%
10:00 +26°C° 0 mm 3 mps 740 mmHg 86%
11:00 +27°C° 0 mm 2 mps 740 mmHg 83%
12:00 +28°C° 0 mm 2 mps 739 mmHg 80%
13:00 +29°C° 0 mm 3 mps 738 mmHg 77%
14:00 +29°C° 0.2 mm 5 mps 738 mmHg 85%
15:00 +28°C° 0.9 mm 6 mps 738 mmHg 86%
16:00 +25°C° 0.8 mm 5 mps 738 mmHg 86%
17:00 +22°C° 13.1 mm 5 mps 738 mmHg 92%
18:00 +21°C° 10.6 mm 5 mps 739 mmHg 94%
19:00 +21°C° 5.3 mm 5 mps 739 mmHg 96%
20:00 +21°C° 0 mm 3 mps 738 mmHg 96%
21:00 +20°C° 0.2 mm 5 mps 739 mmHg 94%
22:00 +20°C° 1.9 mm 6 mps 739 mmHg 96%
23:00 +19°C° 1.2 mm 5 mps 739 mmHg 97%

Day after tomorrow, 27 June, Sunday

Time Temperature Precipitation Wind Pressure Humidity
00:00 +20°C° 0.1 mm 4 mps 739 mmHg 95%
01:00 +20°C° 0 mm 4 mps 739 mmHg 95%
02:00 +19°C° 0.1 mm 5 mps 739 mmHg 97%
03:00 +19°C° 0.2 mm 4 mps 738 mmHg 97%
04:00 +19°C° 0 mm 5 mps 738 mmHg 96%
05:00 +19°C° 0.2 mm 4 mps 738 mmHg 99%
06:00 +19°C° 0 mm 5 mps 738 mmHg 97%
07:00 +19°C° 0.9 mm 5 mps 738 mmHg 98%
08:00 +20°C° 0.8 mm 5 mps 738 mmHg 96%
09:00 +20°C° 0 mm 5 mps 739 mmHg 95%
10:00 +22°C° 0 mm 6 mps 739 mmHg 94%
11:00 +22°C° 0 mm 8 mps 739 mmHg 91%
12:00 +22°C° 0 mm 7 mps 739 mmHg 90%
13:00 +22°C° 0 mm 7 mps 739 mmHg 91%
14:00 +22°C° 0.8 mm 7 mps 738 mmHg 92%
15:00 +22°C° 1.2 mm 6 mps 739 mmHg 95%
16:00 +23°C° 0.3 mm 6 mps 739 mmHg 88%
17:00 +23°C° 0 mm 7 mps 739 mmHg 86%
18:00 +23°C° 0 mm 7 mps 739 mmHg 86%
19:00 +22°C° 0.1 mm 6 mps 739 mmHg 90%
20:00 +21°C° 0.3 mm 6 mps 739 mmHg 94%
21:00 +21°C° 0.2 mm 7 mps 739 mmHg 94%
22:00 +21°C° 0 mm 7 mps 740 mmHg 93%
23:00 +20°C° 0 mm 7 mps 740 mmHg 93%

28 June, Monday

Time Temperature Precipitation Wind Pressure Humidity
00:00 +20°C° 0 mm 7 mps 740 mmHg 94%
01:00 +20°C° 0 mm 7 mps 740 mmHg 94%
02:00 +18°C° 0 mm 7 mps 740 mmHg 94%
03:00 +18°C° 0 mm 7 mps 740 mmHg 93%
04:00 +17°C° 0 mm 6 mps 741 mmHg 95%
05:00 +17°C° 0 mm 6 mps 741 mmHg 96%
06:00 +17°C° 0 mm 6 mps 741 mmHg 96%
07:00 +17°C° 0 mm 6 mps 742 mmHg 96%
08:00 +19°C° 0 mm 6 mps 742 mmHg 95%
09:00 +20°C° 0 mm 6 mps 743 mmHg 93%
10:00 +21°C° 0 mm 6 mps 743 mmHg 90%
11:00 +22°C° 0 mm 6 mps 743 mmHg 86%
12:00 +23°C° 0 mm 6 mps 743 mmHg 83%
13:00 +24°C° 0 mm 6 mps 743 mmHg 81%
14:00 +24°C° 0 mm 6 mps 743 mmHg 79%
15:00 +24°C° 0 mm 6 mps 743 mmHg 77%
16:00 +25°C° 0 mm 5 mps 743 mmHg 76%
17:00 +25°C° 0 mm 5 mps 743 mmHg 76%
18:00 +25°C° 0 mm 5 mps 743 mmHg 80%
19:00 +23°C° 0 mm 4 mps 743 mmHg 83%
20:00 +23°C° 0 mm 2 mps 743 mmHg 89%
21:00 +21°C° 0 mm 2 mps 743 mmHg 92%
22:00 +20°C° 0 mm 2 mps 743 mmHg 94%
23:00 +19°C° 0 mm 2 mps 743 mmHg 95%

29 June, Tuesday

Time Temperature Precipitation Wind Pressure Humidity
00:00 +19°C° 0 mm 2 mps 743 mmHg 96%
01:00 +18°C° 0 mm 2 mps 743 mmHg 96%
02:00 +18°C° 0 mm 2 mps 743 mmHg 96%
03:00 +18°C° 0 mm 2 mps 743 mmHg 97%
04:00 +18°C° 0 mm 1 mps 743 mmHg 98%
05:00 +17°C° 0 mm 2 mps 743 mmHg 99%
06:00 +18°C° 0 mm 2 mps 743 mmHg 98%
07:00 +19°C° 0 mm 2 mps 743 mmHg 97%
08:00 +20°C° 0 mm 2 mps 743 mmHg 96%
09:00 +20°C° 0 mm 2 mps 743 mmHg 94%
10:00 +21°C° 0 mm 2 mps 744 mmHg 91%
11:00 +23°C° 0 mm 2 mps 743 mmHg 85%
12:00 +24°C° 0 mm 2 mps 743 mmHg 82%
13:00 +25°C° 0 mm 2 mps 743 mmHg 79%
14:00 +25°C° 0 mm 2 mps 743 mmHg 73%
15:00 +26°C° 0 mm 2 mps 743 mmHg 70%
16:00 +26°C° 0 mm 2 mps 742 mmHg 74%
17:00 +26°C° 0 mm 1 mps 742 mmHg 74%
18:00 +24°C° 0 mm 0 mps 742 mmHg 74%
19:00 +23°C° 0 mm 0 mps 742 mmHg 79%
20:00 +22°C° 0 mm 0 mps 742 mmHg 84%
21:00 +24°C° 0 mm 1 mps 742 mmHg 84%
22:00 +23°C° 0 mm 1 mps 742 mmHg 86%
23:00 +22°C° 0 mm 1 mps 742 mmHg 88%

30 June, Wednesday

Time Temperature Precipitation Wind Pressure Humidity
00:00 +22°C° 0 mm 1 mps 741 mmHg 89%
01:00 +21°C° 0 mm 1 mps 741 mmHg 93%
02:00 +20°C° 0 mm 1 mps 741 mmHg 96%
03:00 +20°C° 0 mm 1 mps 741 mmHg 98%
04:00 +20°C° 0 mm 1 mps 741 mmHg 99%
05:00 +19°C° 0 mm 1 mps 741 mmHg 100%
06:00 +20°C° 0 mm 1 mps 741 mmHg 100%
07:00 +21°C° 0 mm 1 mps 741 mmHg 97%
08:00 +22°C° 0 mm 1 mps 741 mmHg 96%
09:00 +24°C° 0 mm 2 mps 741 mmHg 94%
10:00 +25°C° 0 mm 2 mps 741 mmHg 94%
11:00 +26°C° 0 mm 2 mps 741 mmHg 92%
12:00 +27°C° 0 mm 2 mps 741 mmHg 87%
13:00 +28°C° 0 mm 2 mps 740 mmHg 86%
14:00 +29°C° 0 mm 2 mps 740 mmHg 83%
15:00 +29°C° 0 mm 3 mps 740 mmHg 81%
16:00 +29°C° 0 mm 4 mps 739 mmHg 83%
17:00 +29°C° 0 mm 3 mps 740 mmHg 86%
18:00 +25°C° 1.4 mm 2 mps 740 mmHg 83%
19:00 +25°C° 0 mm 1 mps 740 mmHg 84%
20:00 +25°C° 0 mm 1 mps 739 mmHg 88%
21:00 +24°C° 0 mm 1 mps 740 mmHg 89%
22:00 +24°C° 0 mm 1 mps 739 mmHg 89%
23:00 +24°C° 0 mm 1 mps 739 mmHg 85%
Show more

We Need Your Consent

Meteoprog and our Service Providers may store and access personal data such as cookies, device identifiers or other similar technologies on your device and process such data to personalise content and ads, as well as provide social media features and to analyse the traffic.

  • Store and/or access information on your device

    Cookies, device identifiers or other information can be stored or accessed on your device for the purposes indicated above.

  • Personalised ads and content, ad and content measurement, audience insights, and products development

    Ads and content can be personalised based on a profile. More data can be added to better personalise ads and content. Ad and content performance can be measured. Insights about the audience who saw the ads and content can be derived. Such data can be used to develop or improve user’s experience, systems and software.

By clicking ‘I Agree’ you will allow the use of indicated cookies, device identifiers, web beacons or other similar technologies. Your settings can be changed in the browser on your device.

For certain purposes, legitimate interests may be relied on, rather than consent. You can read more about this in our Privacy and Cookie Policy.